TimeCST,TemperatureF,Dew PointF,Humidity,Sea Level PressureIn,VisibilityMPH,Wind Direction,Wind SpeedMPH,Gust SpeedMPH,PrecipitationIn,Events,Conditions,WindDirDegrees,DateUTC
12:00 AM,-34,-40,56,30.28,10,SSE,9.2,,,Snow,Snow,150,2014-02-21 06:00:00
12:00 AM,-32.8,-40.0,68,30.28,10.0,SSE,9.2,-,N/A,,Clear,150,2014-02-21 06:00:00
1:00 AM,-32.8,-40.0,68,30.30,10.0,SSE,6.9,-,N/A,,Clear,150,2014-02-21 07:00:00
2:00 AM,-32.8,-40.0,68,30.31,10.0,SSE,9.2,-,N/A,,Clear,150,2014-02-21 08:00:00
3:00 AM,-32.8,-40.0,68,30.32,10.0,SSE,8.1,-,N/A,,Clear,150,2014-02-21 09:00:00
4:00 AM,-32.8,-40.0,68,30.34,10.0,SSE,8.1,-,N/A,,Clear,150,2014-02-21 10:00:00
5:00 AM,-32.8,-45.4,50,30.34,10.0,SSE,8.1,-,N/A,,Clear,150,2014-02-21 11:00:00
6:00 AM,-34,-40,56,30.36,12,SSE,9.2,,,Snow,Snow,150,2014-02-21 12:00:00
6:00 AM,-32.8,-40.0,68,30.36,12.0,SSE,10.4,-,N/A,,Clear,150,2014-02-21 12:00:00
7:00 AM,-32.8,-45.4,50,30.38,15.0,SSE,9.2,-,N/A,,Partly Cloudy,160,2014-02-21 13:00:00
8:00 AM,-34.6,-40.0,75,30.39,6.0,SSE,9.2,-,N/A,Fog,Ice Crystals,150,2014-02-21 14:00:00
9:00 AM,-34.6,-40.0,75,30.40,12.0,SSE,11.5,-,N/A,Fog,Clear,150,2014-02-21 15:00:00
10:00 AM,-32.8,-45.4,50,30.41,15.0,SE,10.4,-,N/A,,Clear,140,2014-02-21 16:00:00
11:00 AM,-32.8,-45.4,50,30.42,8.0,SSE,11.5,-,N/A,,Clear,150,2014-02-21 17:00:00
12:00 PM,-33,-45,30,30.41,10,SSE,11.5,,,Snow,Snow,150,2014-02-21 18:00:00
12:00 PM,-32.8,-45.4,50,30.41,10.0,SSE,11.5,-,N/A,,Clear,150,2014-02-21 18:00:00
1:00 PM,-32.8,-40.0,68,30.42,9.0,SSE,10.4,-,N/A,,Clear,160,2014-02-21 19:00:00
2:00 PM,-31.0,-43.6,51,30.43,9.0,SSE,12.7,-,N/A,,Clear,160,2014-02-21 20:00:00
3:00 PM,-32.8,-38.2,75,30.45,8.0,SSE,11.5,-,N/A,,Clear,150,2014-02-21 21:00:00
4:00 PM,-32.8,-40.0,68,30.45,12.0,SSE,12.7,-,N/A,,Clear,150,2014-02-21 22:00:00
5:00 PM,-32.8,-40.0,68,30.45,15.0,SSE,12.7,-,N/A,,Clear,160,2014-02-21 23:00:00
6:00 PM,-34,-40,56,30.46,15,SSE,10.4,,,Snow,Snow,150,2014-02-22 00:00:00
6:00 PM,-32.8,-40.0,68,30.46,15.0,SSE,9.2,-,N/A,,Partly Cloudy,150,2014-02-22 00:00:00
7:00 PM,-32.8,-40.0,68,30.45,15.0,SSE,11.5,-,N/A,,Partly Cloudy,150,2014-02-22 01:00:00
8:00 PM,-32.8,-40.0,68,30.45,15.0,SSE,12.7,-,N/A,,Partly Cloudy,150,2014-02-22 02:00:00
9:00 PM,-31.0,-38.2,68,30.45,12.0,SSE,12.7,-,N/A,,Mostly Cloudy,150,2014-02-22 03:00:00
10:00 PM,-32.8,-38.2,75,30.45,10.0,SSE,11.5,-,N/A,,Mostly Cloudy,150,2014-02-22 04:00:00
11:00 PM,-32.8,-38.2,75,30.45,10.0,SSE,12.7,-,N/A,,Mostly Cloudy,160,2014-02-22 05:00:00